Flag for U.S.A. Weather past 2 weeks in Lakeland, Florida, U.S.A.

Now
82 °F

Passing clouds.


Feels Like: 87 °F
Forecast: 72 / 88 °F
Wind: 15 mph from Southeast

Location: Lakeland Regional

Current Time: Apr 19, 2015 at 11:50:29 AM

Latest Report: Apr 19, 2015 at 10:59 AM


Visibility: 10 mi

Pressure: 29.95 "Hg

Humidity: 70%

Dew point: 72 °F

Location of LakelandLocation

Historic Weather in Lakeland — Graph

°F

Lakeland temperature yesterday

Maximum temperature yesterday: 90 °F (at 3:50 PM)
Minimum temperature yesterday: 68 °F (at 4:15 AM)
Average temperature yesterday: 75 °F

Past Weeks' High & Low Weather Summary

 TemperatureHumidityPressure
High90 °F (Apr 18, 3:50 PM)100% (Apr 5, 5:15 AM)30.20 "Hg (Apr 5, 5:15 AM)
Low64 °F (Apr 5, 1:15 AM)35% (Apr 4, 5:50 PM)29.92 "Hg (Apr 18, 5:50 PM)
Average74 °F82%30.10 "Hg
* Reported Apr 4 10:50 AM — Apr 19 10:59 AM, Lakeland, Weather by CustomWeather, © 2015

Note: Actual official high and low records may vary slightly from our data, if they occured in-between our weather recording intervals... More about our weather records

Advertising

Lakeland weather history for previous 24 hours

 ConditionsComfort  
Time TempWeatherWind HumidityBarometerVisibility
10:59 AM
Sun, Apr 19
82 °FPassing clouds.15 mph70%29.95 "Hg10 mi
9:50 AM81 °FScattered clouds.12 mph74%29.94 "Hg10 mi
8:50 AM75 °FFog.5 mph89%29.96 "Hg5 mi
7:50 AM72 °FFog.3 mph94%29.96 "Hg4 mi
6:50 AM72 °FFog.No wind94%29.97 "Hg3 mi
5:50 AM72 °FFog.No wind94%29.95 "Hg3 mi
5:35 AM70 °FFog.No wind100%29.95 "Hg3 mi
5:15 AM70 °FFog.No wind100%29.95 "Hg3 mi
4:55 AM72 °FFog.No wind94%29.94 "Hg3 mi
4:35 AM70 °FFog.No wind100%29.94 "Hg3 mi
4:15 AM72 °FFog.No wind94%29.94 "Hg4 mi
3:55 AM72 °FFog.No wind94%29.94 "Hg4 mi
3:35 AM72 °FFog.No wind94%29.94 "Hg4 mi
3:15 AM72 °FFog.No wind94%29.95 "Hg4 mi
2:55 AM72 °FFog.No wind94%29.95 "Hg4 mi
2:35 AM72 °FFog.No wind94%29.95 "Hg4 mi
2:15 AM72 °FFog.No wind94%29.95 "Hg5 mi
1:55 AM72 °FFog.No wind94%29.96 "Hg4 mi
1:35 AM72 °FFog.No wind94%29.97 "Hg5 mi
1:15 AM72 °FFog.No wind94%29.98 "Hg5 mi
12:55 AM72 °FFog.No wind94%29.98 "Hg5 mi
12:35 AM72 °FFog.No wind94%29.98 "Hg5 mi
12:15 AM73 °FFog.No wind89%29.99 "Hg5 mi
11:15 PM
Sat, Apr 18
73 °FClear.No wind89%30.00 "Hg7 mi
10:55 PM73 °FClear.No wind94%30.00 "Hg7 mi
10:15 PM73 °FClear.No wind89%29.99 "Hg7 mi
9:50 PM75 °FClear.3 mph89%29.99 "Hg10 mi
8:50 PM79 °FSunny.No wind79%29.97 "Hg10 mi
7:50 PM81 °FPartly sunny.8 mph74%29.95 "Hg10 mi
6:50 PM81 °FScattered clouds.8 mph74%29.93 "Hg10 mi
5:50 PM86 °FPassing clouds.12 mph62%29.92 "Hg10 mi
4:50 PM88 °FScattered clouds.10 mph55%29.93 "Hg10 mi
3:50 PM90 °FScattered clouds.13 mph94%29.94 "Hg10 mi
2:50 PM88 °FScattered clouds.9 mph52%29.96 "Hg10 mi
12:50 PM84 °FScattered clouds.9 mph62%30.00 "Hg10 mi
11:50 AM84 °FPartly sunny.9 mph62%30.02 "Hg10 mi
Weather by CustomWeather, © 2015

See weather overviewHow to use our weather pages